Simultaneous Nadir Overpasses (SNOs) Predictions

Prediction of SNOs between GOES-17 and AQUA Satellite Orbit:

Table of predicted SNOs for the next 14.0 days since TLE Epoch: 12/23/2023
Index Date Time (GOES-17) GOES-17 Lat,Lon AQUA Lat,Lon Distance(km) Time Diff (sec)
1 12/24/2023 20:48:39 -0.02,-104.67 0.53,-102.14 287.72 80
2 12/25/2023 09:09:07 0.02,-104.70 0.55,-107.09 272.20 80
3 12/27/2023 08:51:12 0.02,-104.70 -0.27,-103.37 151.55 80
4 12/27/2023 21:11:48 -0.02,-104.67 -0.80,-108.36 419.57 80
5 12/29/2023 20:56:32 -0.01,-104.67 0.02,-104.63 5.75 80
6 12/31/2023 20:43:55 -0.00,-104.67 0.84,-100.90 430.00 80
7 01/01/2024 09:04:22 0.00,-104.71 0.26,-105.84 129.05 80
8 01/03/2024 08:46:24 -0.00,-104.72 -0.56,-102.11 296.81 80
9 01/03/2024 21:06:59 0.00,-104.68 -0.52,-107.09 273.92 80
10 01/05/2024 20:54:20 0.00,-104.69 0.30,-103.35 152.61 80
